Back to catalog

STARLINK-34941

AliveCommunicationsVLEO
NORAD 65210·PAYLOAD·🇺🇸 United States

Launched Aug 14, 2025 from Cape Canaveral Space Force Station

Loading…

Next Passes (next 24 hours)

TLE

FreshSource: CelesTrak SupGP

Epoch: Sep 14, 2026, 15:43 UTC

1 65210C 25176N   26257.65534722 -.00012262  00000+0 -36239-3 0  2578
2 65210  53.1602 351.2234 0001286  80.8164 338.0210 15.34388297    15

Track STARLINK-34941 in real time with AllMySat

Download on the App Store